Location: Ceske Budejovice
(48.9830°N, 14.4670°E)
Time: 08:14:58
(UTC+02:00)

DX 1 - Pass Details

Date: 22 August 2019
Orbit: 620 x 630 km, 98.4° (Epoch: 16 September)

Event Time Altitude Azimuth Distance (km) Brightness Sun altitude
Rises 03:41:10 0° 142° (SE) 2,886 ? -20.1°
Reaches altitude 10° 03:43:27 10° 134° (SE) 1,985 ? -19.8°
Maximum altitude 03:47:25 37° 67° (ENE) 972 ? -19.4°
Drops below altitude 10° 03:51:25 10° 0° (N) 2,002 ? -19.0°
Sets 03:53:44 0° 353° (N) 2,915 ? -18.7°
